Weather History for Ellsworth AFB, SD

Change the Weather History Date:

Saturday, March 29, 2014

  Actual Average Record
Temperature  
Mean Temperature 48 °F -  
Max Temperature 69 °F 47 °F 73 °F (2006)
Min Temperature 27 °F 27 °F 26 °F (1999)
Degree Days  
Heating Degree Days 18    
Moisture  
Dew Point 26 °F    
Average Humidity 47    
Maximum Humidity 84    
Minimum Humidity 19    
Precipitation  
Precipitation 0.00 in - - ()
Sea Level Pressure  
Sea Level Pressure 29.86 in    
Wind  
Wind Speed 10 mph (SW)    
Max Wind Speed 25 mph    
Max Gust Speed 31 mph    
Visibility 10 miles    
Events      
Averages and records for this station are not official NWS values.
T = Trace of Precipitation, MM = Missing Value Source: NWS Daily Summary

Daily Weather History Graph

Daily Weather History Graph

Search for Another Location

Airport:

Trip Planner

Search our weather history database for the weather conditions in past years. The results will help you decide how hot, cold, wet, or windy it might be!

Date:

Astronomy

Mar. 29, 2014 Rise Set
Actual Time 6:39 AM MDT 7:15 PM MDT
Civil Twilight 6:09 AM MDT 7:45 PM MDT
Nautical Twilight 5:35 AM MDT 8:19 PM MDT
Astronomical Twilight 4:59 AM MDT 8:55 PM MDT
Moon 5:51 AM MDT (3/29) 6:22 PM MDT (3/29)
Length of Visible Light 13h 35m
Length of Day
12h 36m
Waning Crescent, 1% of the Moon is Illuminated
Mar 29
Waning Crescent
Mar 30
New
Apr 7
First Quarter
Apr 15
Full
Apr 22
Last Quarter

Hourly Weather History & Observations

Time (MDT) Temp. Windchill Dew Point Humidity Pressure Visibility Wind Dir Wind Speed Gust Speed Precip Events Conditions
12:58 AM 28.4 °F 18.0 °F 24.1 °F 84% 30.17 in 10.0 mi South 12.7 mph - N/A   Clear
1:58 AM 28.9 °F 18.2 °F 24.4 °F 83% 30.13 in 10.0 mi South 13.8 mph - N/A   Clear
2:58 AM 29.1 °F 18.4 °F 24.6 °F 83% 30.10 in 10.0 mi South 13.8 mph - N/A   Clear
3:58 AM 30.4 °F 21.5 °F 24.8 °F 80% 30.04 in 10.0 mi South 10.4 mph - N/A   Clear
4:58 AM 29.8 °F 23.9 °F 24.1 °F 79% 30.03 in 10.0 mi SW 5.8 mph - N/A   Clear
5:58 AM 28.2 °F 21.0 °F 23.2 °F 81% 30.01 in 10.0 mi South 6.9 mph - N/A   Clear
6:58 AM 27.3 °F 23.4 °F 22.6 °F 83% 30.01 in 10.0 mi SW 3.5 mph - N/A   Clear
7:58 AM 30.4 °F 24.5 °F 24.6 °F 79% 29.99 in 10.0 mi SW 5.8 mph - N/A   Clear
8:58 AM 36.7 °F 31.2 °F 27.5 °F 69% 29.96 in 10.0 mi SSW 6.9 mph - N/A   Clear
9:58 AM 50.0 °F - 27.9 °F 42% 29.91 in 10.0 mi SSW 5.8 mph - N/A   Clear
10:58 AM 58.1 °F - 26.2 °F 30% 29.88 in 10.0 mi SW 10.4 mph - N/A   Partly Cloudy
11:58 AM 61.7 °F - 26.4 °F 26% 29.84 in 10.0 mi South 10.4 mph - N/A   Clear
12:00 PM 62.6 °F - 26.6 °F 26% 29.81 in 10.0 mi SW 11.5 mph - N/A   Clear
12:58 PM 65.3 °F - 27.3 °F 24% 29.81 in 10.0 mi WSW 12.7 mph - N/A   Clear
12:59 PM 64.4 °F - 26.6 °F 24% 29.78 in 10.0 mi West 12.7 mph 16.1 mph N/A   Clear
1:58 PM 65.1 °F - 24.4 °F 21% 29.77 in 10.0 mi SW 9.2 mph - N/A   Clear
2:19 PM 66.2 °F - 24.8 °F 21% 29.74 in 10.0 mi West 16.1 mph 25.3 mph N/A   Clear
2:58 PM 67.5 °F - 24.8 °F 20% 29.74 in 10.0 mi WSW 15.0 mph 19.6 mph N/A   Clear
3:58 PM 68.7 °F - 25.0 °F 19% 29.71 in 10.0 mi WNW 8.1 mph - N/A   Clear
4:58 PM 68.4 °F - 26.2 °F 21% 29.69 in 10.0 mi Variable 3.5 mph - N/A   Clear
5:58 PM 68.5 °F - 27.9 °F 22% 29.70 in 10.0 mi ENE 4.6 mph - N/A   Clear
6:58 PM 63.9 °F - 27.7 °F 26% 29.71 in 10.0 mi Variable 1.2 mph - N/A   Mostly Cloudy
7:58 PM 58.6 °F - 27.0 °F 30% 29.71 in 10.0 mi West 5.8 mph - N/A   Partly Cloudy
8:58 PM 54.3 °F - 27.3 °F 35% 29.72 in 10.0 mi WSW 10.4 mph - N/A   Clear
9:58 PM 49.3 °F - 27.5 °F 43% 29.71 in 10.0 mi WSW 5.8 mph - N/A   Clear
10:58 PM 50.7 °F - 33.6 °F 52% 29.75 in 10.0 mi NW 25.3 mph 31.1 mph N/A   Clear
11:58 PM 48.7 °F - 34.0 °F 57% 29.78 in 10.0 mi NNW 16.1 mph - N/A   Clear